Flag for Germany Weather past 2 weeks in Dormagen, North Rhine-Westphalia, Germany

59 °F

Partly sunny.

Feels Like: 58 °F
Forecast: 45 / 60 °F
Wind: 6 mph from North

Location: Duesseldorf

Current Time: Oct 9, 2015 at 5:01:16 PM

Latest Report: Oct 9, 2015 at 4:20 PM

Visibility: N/A

Pressure: 30.15 "Hg

Humidity: 68%

Dew point: 48 °F

Location of DormagenLocation

Historic Weather in Dormagen — Graph


Dormagen temperature yesterday

Maximum temperature yesterday: 57 °F (at 12:20 AM)
Minimum temperature yesterday: 54 °F (at 4:50 AM)
Average temperature yesterday: 55 °F

Past Weeks' High & Low Weather Summary

High68 °F (Oct 3, 3:20 PM)100% (Sep 25, 3:50 AM)30.63 "Hg (Sep 25, 3:50 AM)
Low37 °F (Oct 2, 5:20 AM)43% (Sep 30, 3:20 PM)29.56 "Hg (Oct 6, 5:20 AM)
Average55 °F80%30.19 "Hg
* Reported Sep 24 3:20 PM — Oct 9 3:50 PM, Dormagen, Weather by CustomWeather, © 2015

Note: Actual official high and low records may vary slightly from our data, if they occured in-between our weather recording intervals... More about our weather records


Dormagen weather history for previous 24 hours

Time TempWeatherWind HumidityBarometerVisibility
3:50 PM
Fri, Oct 9
59 °FBroken clouds.6 mph68%30.15 "HgN/A
3:20 PM59 °FBroken clouds.6 mph72%30.15 "HgN/A
2:50 PM59 °FPartly sunny.8 mph72%30.15 "HgN/A
2:20 PM59 °FPartly sunny.6 mph68%30.18 "HgN/A
1:50 PM59 °FPartly sunny.6 mph72%30.18 "HgN/A
1:20 PM59 °FPartly sunny.6 mph72%30.18 "HgN/A
12:50 PM57 °FBroken clouds.5 mph77%30.18 "HgN/A
12:20 PM57 °FPartly sunny.5 mph77%30.18 "HgN/A
11:50 AM57 °FPartly sunny.7 mph72%30.18 "HgN/A
11:20 AM57 °FScattered clouds.5 mph77%30.18 "HgN/A
10:50 AM55 °FScattered clouds.3 mph88%30.18 "HgN/A
10:20 AM54 °FPartly sunny.2 mph100%30.18 "Hg6 mi
9:50 AM54 °FPartly sunny.2 mph100%30.18 "Hg5 mi
9:20 AM52 °FClear.2 mph100%30.18 "Hg4 mi
8:50 AM52 °FFog.3 mph100%30.18 "Hg4 mi
8:20 AM52 °FCool.2 mph100%30.18 "Hg2 mi
7:50 AM52 °FCool.3 mph100%30.18 "Hg4 mi
7:20 AM52 °FFog.3 mph100%30.15 "Hg4 mi
6:50 AM52 °FFog.1 mph100%30.15 "Hg5 mi
6:20 AM52 °FClear.2 mph100%30.15 "Hg5 mi
5:50 AM52 °FPassing clouds.2 mph100%30.18 "Hg6 mi
5:20 AM52 °FFog.1 mph100%30.18 "HgN/A
4:50 AM54 °FPassing clouds.1 mph94%30.18 "HgN/A
4:20 AM54 °FPassing clouds.2 mph94%30.18 "HgN/A
3:50 AM54 °FLight rain. Clear.2 mph94%30.18 "HgN/A
3:20 AM54 °FClear.1 mph94%30.18 "Hg10 mi
2:50 AM54 °FClear.2 mph94%30.18 "Hg10 mi
2:20 AM54 °FLight rain. Clear.2 mph94%30.18 "HgN/A
1:50 AM54 °FLight rain. Partly cloudy.3 mph94%30.18 "HgN/A
1:20 AM54 °FPassing clouds.5 mph94%30.18 "HgN/A
12:50 AM54 °FPassing clouds.2 mph94%30.18 "HgN/A
12:20 AM54 °FPassing clouds.1 mph94%30.18 "HgN/A
11:50 PM
Thu, Oct 8
54 °FPassing clouds.2 mph94%30.18 "HgN/A
11:20 PM54 °FPassing clouds.2 mph94%30.18 "HgN/A
10:50 PM54 °FPassing clouds.2 mph94%30.18 "HgN/A
10:20 PM54 °FPassing clouds.3 mph94%30.18 "HgN/A
9:50 PM54 °FPassing clouds.3 mph94%30.18 "HgN/A
9:20 PM54 °FPassing clouds.3 mph94%30.18 "HgN/A
8:50 PM54 °FPartly cloudy.2 mph94%30.18 "HgN/A
8:20 PM54 °FPassing clouds.3 mph94%30.15 "HgN/A
7:50 PM54 °FBroken clouds.3 mph100%30.15 "HgN/A
7:20 PM54 °FBroken clouds.6 mph100%30.15 "Hg4 mi
6:50 PM54 °FBroken clouds.6 mph94%30.15 "Hg5 mi
6:20 PM55 °FBroken clouds.5 mph94%30.15 "Hg5 mi
5:50 PM54 °FDrizzle. Fog.5 mph94%30.15 "Hg2 mi
5:20 PM55 °FDrizzle. Broken clouds.6 mph88%30.15 "HgN/A
Weather by CustomWeather, © 2015

See weather overviewHow to use our weather pages